Simultaneous Nadir Overpasses (SNOs) Predictions

Prediction of SNOs between NOAA-19 and METOP-C Satellite Orbit:

Table of predicted SNOs for the next 14.0 days since TLE Epoch: 8/26/2022
Index Date (NOAA-19) Time (NOAA-19) Lat,Lon (NOAA-19) SZA (NOAA-19 ) Date (METOP-C) Time (METOP-C) Lat,Lon (METOP-C) SZA (METOP-C ) Distance(km) Time Diff (sec)
1 08/27/2022 05:35:45 -80.88, -50.67 107.71 08/27/2022 05:36:43 -80.88, -50.53 107.68 2.44 58
2 08/27/2022 06:26:39 80.88, 116.84 72.32 08/27/2022 06:27:24 80.89, 117.01 72.36 3.30 45
3 08/27/2022 07:17:44 -80.88, -75.87 107.66 08/27/2022 07:18:05 -80.87, -76.03 107.68 3.00 21
4 08/27/2022 08:08:38 80.88, 91.63 72.37 08/27/2022 08:08:46 80.88, 91.51 72.37 2.27 8
5 08/27/2022 08:59:43 -80.88,-101.08 107.62 08/27/2022 08:59:26 -80.88,-101.18 107.63 1.87 17
6 08/27/2022 09:50:38 80.88, 66.06 72.39 08/27/2022 09:50:08 80.87, 66.00 72.37 1.04 30
7 08/27/2022 10:41:43 -80.88,-126.66 107.60 08/27/2022 10:40:48 -80.87,-126.69 107.62 0.75 55
8 08/27/2022 11:32:37 80.87, 40.85 72.44 08/27/2022 11:31:29 80.88, 40.86 72.42 1.03 68
9 09/07/2022 11:53:05 -80.89,-145.05 103.56 09/07/2022 11:54:04 -80.88,-144.87 103.52 3.13 59
10 09/07/2022 12:44:00 80.88, 22.48 76.48 09/07/2022 12:44:45 80.89, 22.57 76.51 1.65 45
11 09/07/2022 13:35:04 -80.88,-170.26 103.51 09/07/2022 13:35:26 -80.87,-170.38 103.52 2.54 22
12 09/07/2022 14:26:00 80.89, -3.10 76.50 09/07/2022 14:26:07 80.88, -2.94 76.51 3.07 7
13 09/07/2022 15:17:03 -80.88, 164.53 103.46 09/07/2022 15:16:47 -80.88, 164.47 103.47 1.01 16
14 09/07/2022 16:07:59 80.88, -28.31 76.55 09/07/2022 16:07:29 80.87, -28.44 76.52 2.77 30
15 09/07/2022 16:59:03 -80.88, 138.94 103.44 09/07/2022 16:58:09 -80.87, 138.97 103.46 1.13 54



Historial Predications of SNOs between NOAA-19 and METOP-C
